Current weather by "City, St" or "zip code"  
 

Current Conditions: Cocoa Beach, Cape Canaveral Air Force Station Skid Strip, FL

Fair


83.0 F

Last Updated on Oct 31 2020, 1:56 pm EDT
Humidity: 59%
Wind Speed: E 11.5 mph
Barometer 30.11 in
Dewpoint: 66.7 F
Visibility: 10.00 mi
Precip: --
Heat Index: 86 F
Wind Chill: NA
Current conditions at:

Cocoa Beach, Cape Canaveral Air Force Station Skid Strip, FL (KXMR)

Lat: 28.46667 Lon: 80.56667

Local Radar Image active severe weather and emergency alerts image image weather storm and storm spotter reports image weather observation monitoring service image
Local
Radar
Active
Alerts
Storm Reports Obs
Monitoring

Sign-up For Email & Text Message Weather Alert Notification Services



Advertise Here

Observation History for Cocoa Beach, Cape Canaveral Air Force Station Skid Strip, FL


Time Wind
(mph)
Vis
(mi)
Weather Precip (in) Temperature (F) Relative
Humidity
Wind
Chill
(F)
Heat
Index
(F)
Pressure
Air Dwpt altimeter
(in)
sea level
(mb)
Rmks
1:56 pm EDT E 11.5 10.00 Fair -- 83.0 66.7 59% NA 86 30.11 1019.9
12:56 pm EDT E 10.4 10.00 Fair -- 83.0 66.7 58% NA 85 30.13 1020.6
11:56 am EDT E 11.5 G 18.4 10.00 Fair -- 82.0 64.6 56% NA 84 30.14 1020.9
10:56 am EDT E 8.1 10.00 Fair -- 81.0 64.6 57% NA 83 30.15 1021.3
9:56 am EDT E 11.5 10.00 Fair -- 80.0 63.9 59% NA 82 30.14 1020.9
8:56 am EDT E 10.4 10.00 Fair -- 77.0 64.6 66% NA NA 30.11 1019.9
7:56 am EDT E 5.8 10.00 Fair -- 73.0 62.4 70% NA NA 30.09 1019.3
6:56 am EDT E 6.9 10.00 Fair -- 71.0 61.7 72% NA NA 30.08 1018.9
5:56 am EDT E 5.8 10.00 Fair -- 71.0 61.3 71% NA NA 30.07 1018.6
4:56 am EDT E 4.6 10.00 Partly Cloudy -- 71.0 60.8 70% NA NA 30.06 1018.2
3:56 am EDT E 8.1 10.00 Partly Cloudy -- 71.0 61.2 71% NA NA 30.05 1017.9
2:56 am EDT E 5.8 10.00 Partly Cloudy -- 71.0 61.0 72% NA NA 30.06 1018.2
1:56 am EDT NE 6.9 10.00 A Few Clouds -- 71.0 60.3 70% NA NA 30.05 1017.9
12:56 am EDT NE 5.8 10.00 A Few Clouds -- 69.0 60.6 74% NA NA 30.06 1018.2
11:56 pm EDT NE 4.6 10.00 A Few Clouds -- 69.0 60.3 74% NA NA 30.06 1018.2
10:56 pm EDT NE 4.6 10.00 Fair -- 68.0 60.1 75% NA NA 30.06 1018.2
9:56 pm EDT NE 8.1 10.00 Fair -- 67.0 58.8 74% NA NA 30.05 1017.9
8:56 pm EDT NE 5.8 10.00 Fair -- 66.0 58.3 75% NA NA 30.04 1017.6
7:56 pm EDT N 6.9 10.00 Fair -- 66.0 57.4 74% NA NA 30.03 1017.2
6:56 pm EDT NE 6.9 3.00 Fair with Haze -- 68.0 58.8 72% NA NA 30.01 1016.5
5:56 pm EDT N 10.4 10.00 Fair -- 72.0 60.4 67% NA NA 29.99 1015.9
4:56 pm EDT N 10.4 10.00 Fair -- 74.0 59.4 60% NA NA 29.97 1015.2
3:56 pm EDT N 10.4 10.00 Fair -- 75.0 58.6 56% NA NA 29.97 1015.2

Regional Weather Observation


Cocoa Beach, Cape Canaveral Air Force Station Skid Strip, FL (KXMR)

Fair
83.0 F

Cocoa - Patrick Air Force Base, FL (KCOF)

A Few Clouds
82.0 F

Melbourne International Airport, FL (KMLB)

Overcast
81.0 F

Orlando / Sanford Airport, FL (KSFB)

Fair
84.0 F

New Smyrna Beach Municipal Airport, FL (KEVB)

Partly Cloudy
NULL F

Orlando Executive Airport, FL (KORL)

Fair
85.0 F